When you browse on this site, cookies collect data to enhance your experience and personalize the content and advertising you see.
Visit our Privacy Policy to learn more. By continuing to use the site, you agree to this use of cookies and data.
  • In Hungary
  • List of Countries
  • For 7 days
  • Water Temperature
  • Weather Map
  • News
  • Weather Widgets
  • user-avatar
    Login

    Hourly Weather Kyongju

    Today, 16 November, Saturday

    Time Temperature Precipitation Wind Pressure Humidity
    00:00 +8°C° 0 mm 1 mps 760 mmHg 79%
    01:00 +8°C° 0 mm 1 mps 760 mmHg 81%
    02:00 +8°C° 0 mm 1 mps 760 mmHg 82%
    03:00 +8°C° 0 mm 1 mps 760 mmHg 82%
    04:00 +8°C° 0 mm 1 mps 760 mmHg 82%
    05:00 +8°C° 0 mm 1 mps 760 mmHg 81%
    06:00 +8°C° 0 mm 1 mps 760 mmHg 81%
    07:00 +9°C° 0 mm 1 mps 760 mmHg 77%
    08:00 +11°C° 0 mm 1 mps 760 mmHg 73%
    09:00 +13°C° 0 mm 1 mps 761 mmHg 70%
    10:00 +14°C° 0 mm 2 mps 761 mmHg 66%
    11:00 +16°C° 0 mm 2 mps 761 mmHg 61%
    12:00 +18°C° 0 mm 3 mps 761 mmHg 57%
    13:00 +18°C° 0 mm 3 mps 760 mmHg 57%
    14:00 +18°C° 0 mm 3 mps 760 mmHg 57%
    15:00 +18°C° 0 mm 2 mps 760 mmHg 59%
    16:00 +18°C° 0 mm 1 mps 760 mmHg 65%
    17:00 +15°C° 0 mm 1 mps 761 mmHg 72%
    18:00 +13°C° 0 mm 0 mps 761 mmHg 78%
    19:00 +12°C° 0 mm 0 mps 762 mmHg 79%
    20:00 +12°C° 0 mm 0 mps 762 mmHg 80%
    21:00 +12°C° 0 mm 0 mps 762 mmHg 81%
    22:00 +12°C° 0 mm 0 mps 762 mmHg 82%
    23:00 +11°C° 0 mm 0 mps 762 mmHg 83%

    Tomorrow, 17 November, Sunday

    Time Temperature Precipitation Wind Pressure Humidity
    00:00 +11°C° 0 mm 0 mps 762 mmHg 84%
    01:00 +11°C° 0 mm 0 mps 762 mmHg 84%
    02:00 +11°C° 0 mm 0 mps 762 mmHg 85%
    03:00 +12°C° 0 mm 1 mps 762 mmHg 85%
    04:00 +10°C° 0 mm 0 mps 762 mmHg 86%
    05:00 +10°C° 0 mm 0 mps 762 mmHg 86%
    06:00 +10°C° 0 mm 0 mps 762 mmHg 87%
    07:00 +11°C° 0 mm 0 mps 762 mmHg 84%
    08:00 +12°C° 0 mm 0 mps 762 mmHg 80%
    09:00 +13°C° 0 mm 0 mps 762 mmHg 77%
    10:00 +15°C° 0.1 mm 1 mps 762 mmHg 76%
    11:00 +16°C° 0.1 mm 1 mps 762 mmHg 74%
    12:00 +18°C° 0.1 mm 1 mps 762 mmHg 73%
    13:00 +18°C° 0 mm 1 mps 761 mmHg 74%
    14:00 +16°C° 0 mm 1 mps 761 mmHg 76%
    15:00 +16°C° 0 mm 1 mps 760 mmHg 77%
    16:00 +16°C° 0.1 mm 2 mps 760 mmHg 81%
    17:00 +16°C° 0.1 mm 2 mps 760 mmHg 84%
    18:00 +15°C° 0.1 mm 2 mps 759 mmHg 88%
    19:00 +14°C° 0.1 mm 3 mps 759 mmHg 87%
    20:00 +16°C° 0.1 mm 3 mps 758 mmHg 86%
    21:00 +16°C° 0.1 mm 3 mps 757 mmHg 85%
    22:00 +16°C° 0.3 mm 3 mps 757 mmHg 88%
    23:00 +16°C° 0.3 mm 3 mps 756 mmHg 90%

    Day after tomorrow, 18 November, Monday

    Time Temperature Precipitation Wind Pressure Humidity
    00:00 +17°C° 0.3 mm 4 mps 755 mmHg 92%
    01:00 +17°C° 0.3 mm 4 mps 755 mmHg 92%
    02:00 +17°C° 0.3 mm 5 mps 754 mmHg 92%
    03:00 +17°C° 0.3 mm 5 mps 754 mmHg 91%
    04:00 +16°C° 1.8 mm 5 mps 754 mmHg 90%
    05:00 +15°C° 1.8 mm 5 mps 754 mmHg 88%
    06:00 +14°C° 1.8 mm 6 mps 754 mmHg 86%
    07:00 +12°C° 0.2 mm 7 mps 755 mmHg 81%
    08:00 +11°C° 0.2 mm 8 mps 756 mmHg 76%
    09:00 +11°C° 0.2 mm 8 mps 757 mmHg 71%
    10:00 +10°C° 0 mm 8 mps 757 mmHg 66%
    11:00 +10°C° 0 mm 8 mps 757 mmHg 62%
    12:00 +9°C° 0 mm 7 mps 757 mmHg 57%
    13:00 +9°C° 0 mm 7 mps 758 mmHg 56%
    14:00 +9°C° 0 mm 6 mps 758 mmHg 55%
    15:00 +8°C° 0 mm 6 mps 758 mmHg 55%
    16:00 +7°C° 0 mm 6 mps 758 mmHg 57%
    17:00 +5°C° 0 mm 6 mps 759 mmHg 59%
    18:00 +3°C° 0 mm 6 mps 759 mmHg 61%
    19:00 +3°C° 0 mm 6 mps 760 mmHg 62%
    20:00 +2°C° 0 mm 5 mps 760 mmHg 62%
    21:00 +2°C° 0 mm 5 mps 761 mmHg 63%
    22:00 +2°C° 0 mm 5 mps 761 mmHg 64%
    23:00 +1°C° 0 mm 4 mps 761 mmHg 64%

    19 November, Tuesday

    Time Temperature Precipitation Wind Pressure Humidity
    00:00 +1°C° 0 mm 4 mps 761 mmHg 65%
    01:00 +1°C° 0 mm 4 mps 761 mmHg 66%
    02:00 +1°C° 0 mm 4 mps 761 mmHg 67%
    03:00 +1°C° 0 mm 4 mps 761 mmHg 68%
    04:00 +1°C° 0 mm 3 mps 761 mmHg 71%
    05:00 +1°C° 0 mm 3 mps 762 mmHg 73%
    06:00 +1°C° 0 mm 3 mps 762 mmHg 75%
    07:00 0°C° 0 mm 4 mps 762 mmHg 71%
    08:00 +1°C° 0 mm 4 mps 762 mmHg 67%
    09:00 +2°C° 0 mm 5 mps 763 mmHg 62%
    10:00 +3°C° 0 mm 6 mps 763 mmHg 58%
    11:00 +4°C° 0 mm 6 mps 763 mmHg 54%
    12:00 +5°C° 0 mm 7 mps 763 mmHg 49%
    13:00 +5°C° 0 mm 7 mps 762 mmHg 49%
    14:00 +5°C° 0 mm 7 mps 762 mmHg 49%
    15:00 +5°C° 0 mm 6 mps 762 mmHg 49%
    16:00 +5°C° 0 mm 5 mps 762 mmHg 54%
    17:00 +4°C° 0 mm 4 mps 763 mmHg 60%
    18:00 +3°C° 0 mm 3 mps 763 mmHg 65%
    19:00 +2°C° 0 mm 3 mps 764 mmHg 67%
    20:00 +2°C° 0 mm 3 mps 764 mmHg 69%
    21:00 +2°C° 0 mm 3 mps 765 mmHg 71%
    22:00 +1°C° 0 mm 3 mps 765 mmHg 72%
    23:00 +1°C° 0 mm 3 mps 765 mmHg 73%

    20 November, Wednesday

    Time Temperature Precipitation Wind Pressure Humidity
    00:00 0°C° 0 mm 4 mps 765 mmHg 75%
    01:00 -1°C° 0 mm 4 mps 765 mmHg 71%
    02:00 -1°C° 0 mm 5 mps 766 mmHg 67%
    03:00 -1°C° 0 mm 5 mps 766 mmHg 63%
    04:00 -1°C° 0 mm 5 mps 766 mmHg 61%
    05:00 -1°C° 0 mm 4 mps 766 mmHg 60%
    06:00 -1°C° 0 mm 4 mps 766 mmHg 59%
    07:00 0°C° 0 mm 3 mps 766 mmHg 54%
    08:00 +1°C° 0 mm 3 mps 767 mmHg 49%
    09:00 +2°C° 0 mm 3 mps 767 mmHg 44%
    10:00 +4°C° 0 mm 3 mps 767 mmHg 38%
    11:00 +5°C° 0 mm 3 mps 766 mmHg 32%
    12:00 +8°C° 0 mm 3 mps 766 mmHg 26%
    13:00 +8°C° 0 mm 3 mps 766 mmHg 26%
    14:00 +9°C° 0 mm 3 mps 766 mmHg 27%
    15:00 +9°C° 0 mm 3 mps 766 mmHg 28%
    16:00 +7°C° 0 mm 2 mps 766 mmHg 33%
    17:00 +6°C° 0 mm 2 mps 766 mmHg 38%
    18:00 +4°C° 0 mm 2 mps 766 mmHg 43%
    19:00 +3°C° 0 mm 2 mps 767 mmHg 45%
    20:00 +3°C° 0 mm 2 mps 767 mmHg 47%
    21:00 +3°C° 0 mm 1 mps 767 mmHg 49%
    22:00 +3°C° 0 mm 1 mps 767 mmHg 49%
    23:00 +3°C° 0 mm 1 mps 767 mmHg 49%

    21 November, Thursday

    Time Temperature Precipitation Wind Pressure Humidity
    00:00 +3°C° 0 mm 1 mps 767 mmHg 48%
    01:00 +3°C° 0 mm 1 mps 767 mmHg 48%
    02:00 +3°C° 0 mm 1 mps 767 mmHg 47%
    03:00 +3°C° 0 mm 1 mps 767 mmHg 46%
    04:00 +3°C° 0 mm 1 mps 767 mmHg 45%
    05:00 +3°C° 0 mm 1 mps 767 mmHg 45%
    06:00 +3°C° 0 mm 1 mps 768 mmHg 44%
    07:00 +4°C° 0 mm 1 mps 768 mmHg 42%
    08:00 +6°C° 0 mm 1 mps 768 mmHg 40%
    09:00 +7°C° 0 mm 1 mps 768 mmHg 38%
    10:00 +9°C° 0 mm 1 mps 768 mmHg 37%
    11:00 +11°C° 0 mm 1 mps 768 mmHg 35%
    12:00 +12°C° 0 mm 1 mps 767 mmHg 33%
    13:00 +13°C° 0 mm 1 mps 767 mmHg 34%
    14:00 +13°C° 0 mm 1 mps 767 mmHg 36%
    15:00 +13°C° 0 mm 1 mps 767 mmHg 37%
    16:00 +12°C° 0 mm 1 mps 767 mmHg 41%
    17:00 +10°C° 0 mm 1 mps 767 mmHg 46%
    18:00 +9°C° 0 mm 1 mps 767 mmHg 50%
    19:00 +9°C° 0 mm 1 mps 767 mmHg 51%
    20:00 +9°C° 0 mm 1 mps 767 mmHg 52%
    21:00 +8°C° 0 mm 1 mps 767 mmHg 54%
    22:00 +8°C° 0 mm 1 mps 767 mmHg 55%
    23:00 +8°C° 0 mm 1 mps 767 mmHg 57%
    Show more